Location: Ore Lake
(42.4733°N, 83.8017°W)
Time: 22:07:09
(UTC-04:00)

Daily predictions for brighter satellites

Satellite Brightness Start Highest point End
(mag) Time Altitude Azimuth Time Altitude Azimuth Time Altitude Azimuth
Cosmos 2366 rocket 4.3 19:08:06 10° SSE 19:13:57 44° E 19:19:47 10° NNE
SMAP 3.4 19:11:32 10° S 19:16:10 72° WSW 19:20:50 10° NNW
Cosmos 1242 Rocket 2.9 19:13:54 10° SSW 19:17:30 72° W 19:21:10 10° N
USA 116 4.5 19:13:23 10° NNE 19:18:27 82° ESE 19:23:48 10° S
Cosmos 2221 4.2 19:18:55 10° ESE 19:21:01 13° E 19:23:07 10° NE
ISS -2.8 19:18:35 10° WNW 19:21:46 48° SW 19:24:56 10° SE
Cosmos 1076 Rocket 4.4 19:17:53 10° NNW 19:22:04 54° W 19:26:12 10° S
Cosmos 1500 Rocket 4.3 19:19:25 10° NNE 19:23:16 29° ENE 19:27:03 10° SE
METEOR-M 4.2 19:19:53 10° SSE 19:25:07 59° ENE 19:30:23 10° N
SPOT 3 Rocket 3.7 19:21:44 10° SSE 19:26:45 53° ENE 19:31:50 10° N
Ariane Rocket 4.3 19:22:20 10° S 19:27:12 46° W 19:32:08 10° NNW
SL-8 Rocket 4.0 19:22:45 10° S 19:28:55 79° E 19:35:10 10° N
Cosmos 1315 Rocket 4.1 19:26:13 10° NNE 19:29:19 21° ENE 19:32:26 10° ESE
COSMOS 2428 4.1 19:26:20 10° N 19:30:22 19° NE 19:34:16 10° E
Cosmos 921 Rocket 4.3 19:26:56 10° N 19:30:27 22° ENE 19:33:54 10° ESE
Cosmos 2333 Rocket 4.1 19:31:13 10° NNE 19:33:30 12° NE 19:35:46 10° ENE
Cosmos 2056 Rocket 3.5 19:30:08 10° NNW 19:35:30 79° ENE 19:40:44 10° SSE
Cosmos 1461 3.2 19:32:31 10° SW 19:36:31 69° NW 19:40:43 10° NNE
Cosmos 2360 Rocket 2.6 19:32:40 10° NNW 19:38:03 42° ENE 19:43:25 10° SE
Cosmos 2058 3.3 19:35:13 10° N 19:39:12 41° ENE 19:43:09 10° SSE
NOAA 12 4.2 19:36:36 10° SSE 19:41:45 56° ENE 19:46:57 10° N
COSMO-SKYMED 1 2.5 19:38:44 10° NNE 19:43:07 78° ESE 19:47:26 10° S
RESURS DK-1 3.1 19:39:55 10° N 19:43:39 32° ENE 19:47:05 12° ESE
Cosmos 2322 Rocket 2.4 19:38:38 10° NNW 19:44:15 75° WSW 19:49:50 10° SSE
Cosmos 1626 2.0 19:42:19 10° N 19:46:02 66° E 19:49:45 10° SSE
SL-24 R/B - RUBIN 2 4.3 19:41:44 10° NNW 19:46:24 38° NE 19:49:58 14° ESE
Cosmos 864 Rocket 4.5 19:40:27 10° S 19:46:45 77° E 19:53:04 10° N
Cosmos 2218 Rocket 4.0 19:42:43 10° S 19:48:53 88° W 19:55:04 10° N
Meteor 1-11 4.3 19:45:05 10° N 19:50:54 87° W 19:56:39 10° S
Aureole 1 Rocket 4.0 19:44:16 10° SSW 19:51:07 79° WNW 19:56:17 10° NNE
BREEZE-M DEB (TANK) 1.6 19:49:50 10° SW 19:51:50 38° SE 19:52:36 26° E
Lacrosse 5 rocket 3.5 19:49:28 10° W 19:53:06 23° NNW 19:56:36 10° NNE
SL-8 R/B 4.2 19:48:42 10° SW 19:53:15 44° SE 19:56:26 18° ENE
Cosmos 1452 Rocket 3.8 19:48:18 10° N 19:53:23 46° ENE 19:58:25 10° SE
EO 1 Del DPAF 3.9 19:49:45 10° N 19:53:33 58° WNW 19:57:19 10° SSW
USA 267 3.9 19:49:38 12° ENE 19:55:11 36° SE 20:01:04 10° SSW
SJ-6B 3.8 19:55:12 19° ESE 19:56:36 24° ENE 19:59:40 10° NNE
Cosmos 1727 Rocket 4.0 19:53:40 10° N 20:00:04 83° E 20:06:25 10° S
Atlas Centaur 2 3.6 19:56:39 10° SW 20:00:36 23° S 20:04:35 12° SE
DELTA 2 R/B (1) 3.8 19:56:37 10° W 20:02:10 66° S 20:05:56 21° ESE
Cosmos 2322 3.8 19:57:54 10° NNW 20:03:33 54° ENE 20:09:07 10° SE
Gbstr 26 Del rocket 4.4 20:02:37 10° NW 20:07:15 37° NNE 20:10:30 21° ENE
YAOGAN 1 4.5 20:05:01 10° SSW 20:08:54 33° W 20:12:51 10° NNW
BREEZE M DEB (TANK) 3.1 20:04:48 10° WNW 20:09:22 31° N 20:10:26 23° NE
ALOS 2.3 20:05:33 10° SSE 20:10:13 87° WSW 20:14:55 10° NNW
CZ-4C R/B 3.2 20:08:39 10° SSE 20:12:18 22° ESE 20:12:18 22° ESE
GP-B 4.1 20:09:23 10° N 20:13:41 50° W 20:17:57 10° SSW
FENGYUN 3A 3.7 20:09:29 10° SSE 20:14:53 85° WSW 20:20:20 10° NNW
Cosmos 1703 3.6 20:11:54 10° NNW 20:15:49 68° W 20:19:41 10° S
Abrixas rocket 3.2 20:14:22 10° W 20:17:31 40° NNW 20:18:42 28° NNE
Cosmos 1400 Rocket 4.1 20:21:11 10° NNW 20:25:03 43° W 20:28:50 10° SSW
Cosmos 2219 Rocket 2.9 20:23:41 10° N 20:28:39 31° NE 20:29:16 30° ENE
Tiangong 1 3.6 20:27:53 10° SW 20:28:47 11° SSW 20:29:40 10° SSW
USA 234 4.1 20:28:01 24° ENE 20:30:58 35° NNE 20:36:46 10° NW
Thor Agena Rocket 3.4 20:26:32 10° NNE 20:31:41 88° ESE 20:36:45 10° SSW
Cosmos 1048 Rocket 4.0 20:30:33 10° S 20:35:31 53° ESE 20:38:42 21° NE
SL-16 R/B 4.3 20:32:52 10° NW 20:37:32 27° WSW 20:42:10 10° SSW
Cosmos 1908 3.6 20:35:02 10° SSW 20:38:55 66° W 20:42:50 10° N
Cosmos 2333 4.3 20:33:25 10° NNW 20:39:02 56° ENE 20:40:47 40° ESE
Cosmos 2237 4.1 20:33:28 10° NNW 20:39:15 84° ENE 20:42:59 23° SSE
Cosmos 1420 Rocket 3.9 20:35:29 10° NNW 20:40:50 88° ENE 20:44:26 21° SSE
Iridium 4 Rocket 3.7 20:35:42 10° S 20:41:06 86° W 20:46:56 10° N
Envisat 3.5 20:46:16 39° NE 20:46:16 39° NE 20:50:24 10° N
H-2A R/B 3.1 20:43:00 15° S 20:46:05 64° W 20:49:59 10° NNW
Resurs 01 Rocket 2.5 20:49:59 34° NNE 20:49:59 34° NNE 20:52:49 10° N
Cosmos 44 4.1 20:45:24 10° SSW 20:47:53 31° S 20:47:53 31° S
GENESIS II 4.5 20:47:11 10° SW 20:51:08 67° NW 20:51:48 55° N
FREGAT/IRIS 4.5 20:56:03 27° WSW 20:56:37 30° W 20:59:19 10° NNW
Cosmos 2237 Rocket 3.4 20:51:50 10° N 20:55:40 27° NE 20:55:40 27° NE
Cosmos 2221 3.3 20:53:53 10° SSW 20:58:05 51° W 21:02:20 10° N
In-Cosmos 22 Rocket 4.4 20:53:20 10° N 20:58:32 52° ENE 20:58:32 52° ENE
Cosmos 44 Rocket 3.9 20:55:33 10° SSW 20:58:42 40° S 20:58:42 40° S
SL-16 R/B 4.2 21:01:02 10° N 21:02:44 14° NNE 21:02:44 14° NNE
Cosmos 1535 Rocket 4.4 20:58:40 10° S 21:04:50 85° W 21:10:58 10° N
Cosmos 158 Rocket 4.3 21:04:18 10° SSW 21:09:16 64° WNW 21:14:26 10° NNE
COSMOS 2428 2.8 21:09:34 10° NNW 21:15:15 75° WSW 21:16:20 58° S
Cosmos 1269 Rocket 4.0 21:10:29 10° SSW 21:15:45 79° WNW 21:16:59 54° N
Cosmos 2333 Rocket 2.5 21:13:15 10° NNW 21:18:02 55° NNE 21:18:02 55° NNE
Cosmos 2360 Rocket 4.0 21:17:03 10° NW 21:21:50 29° WSW 21:26:36 10° SSW
Cosmos 2098 Rocket 4.3 21:18:01 10° SSW 21:22:00 43° WNW 21:27:03 10° N
MOS 1-B Rocket 4.0 21:25:31 51° SSW 21:26:52 69° WSW 21:32:46 10° NNW
Cosmos 2219 3.3 21:21:32 10° SSW 21:27:16 77° WNW 21:27:40 73° NNW
NOSS 0 Rocket 4.1 21:27:25 10° NNW 21:32:33 60° N 21:32:33 60° N
Lacrosse 5 rocket 4.2 21:32:15 10° NNW 21:33:24 11° N 21:33:24 11° N
USA 267 3.4 21:37:01 54° NNE 21:38:27 69° NW 21:44:56 10° WSW
Atlas Centaur 2 4.2 21:44:35 10° WSW 21:47:13 19° SSW 21:47:13 19° SSW
CZ-4C R/B 3.8 21:55:19 10° SW 21:57:35 26° WSW 21:57:35 26° WSW
Cosmos 2219 Rocket 3.7 22:07:29 10° NW 22:11:02 32° WNW 22:11:02 32° WNW
BREEZE-M DEB (TANK) 4.4 22:03:19 10° WNW 22:11:54 45° W 22:11:54 45° W
USA 234 3.9 22:15:23 50° NW 22:15:23 50° NW 22:20:03 10° NW
Cosmos 2237 Rocket 4.4 22:35:36 10° NW 22:37:30 21° NW 22:37:30 21° NW
